Terminal Aerodrome Forecast
Issued by NWS Billings, MT

Home | Current Version | Previous Version | Text Only | Print | Product List | Glossary On
Versions: 1 2 3 4 5 6 7 8 9 10 11 12 13 14 15 16 17 18 19 20 21 22 23 24 25
000
FTUS45 KBYZ 251134
TAFSHR
TAF
KSHR 251134Z 2512/2612 35010KT 1 1/2SM -SN BR BKN005 OVC010
     FM252100 32012KT 4SM -SN OVC010
     FM260300 VRB04KT P6SM OVC015=

USA.gov is the U.S. government's official web portal to all federal, state and local government web resources and services.